,,PressureMeas_1m,,PRMeasQMR101_1,,RHStat155_1m_1,,SRMeasQMS101R_1m,,TAStat155_1m_1,,GenWind_1,,GenWind_1,
2019-08-08, 00:00:06,VALID,917.663,VALID,0.0,VALID,97.271,VALID,-0.017,VALID,20.552,VALID,174.0,VALID,0.0,
2019-08-08, 00:01:06,VALID,917.669,VALID,0.0,VALID,97.154,VALID,-0.004,VALID,20.571,VALID,174.0,VALID,0.0,
2019-08-08, 00:02:06,VALID,917.663,VALID,0.0,VALID,97.148,VALID,-0.011,VALID,20.605,VALID,174.0,VALID,0.0,
2019-08-08, 00:03:06,VALID,917.638,VALID,0.0,VALID,97.029,VALID,-0.009,VALID,20.61,VALID,234.0,VALID,0.0,
2019-08-08, 00:04:06,VALID,917.638,VALID,0.0,VALID,96.977,VALID,-0.025,VALID,20.6,VALID,247.0,VALID,0.0,
2019-08-08, 00:05:06,VALID,917.659,VALID,0.0,VALID,97.05,VALID,-0.025,VALID,20.622,VALID,248.0,VALID,0.0,
2019-08-08, 00:06:06,VALID,917.698,VALID,0.0,VALID,97.116,VALID,-0.015,VALID,20.664,VALID,259.0,VALID,0.0,
2019-08-08, 00:07:06,VALID,917.738,VALID,0.0,VALID,96.955,VALID,-0.018,VALID,20.671,VALID,260.0,VALID,0.0,
2019-08-08, 00:08:06,VALID,917.754,VALID,0.0,VALID,96.93,VALID,-0.024,VALID,20.692,VALID,280.0,VALID,0.0,
2019-08-08, 00:09:06,VALID,917.752,VALID,0.0,VALID,96.79,VALID,-0.013,VALID,20.688,VALID,328.0,VALID,0.0,
2019-08-08, 00:10:06,VALID,917.753,VALID,0.0,VALID,96.765,VALID,-0.014,VALID,20.71,VALID,341.0,VALID,0.0,
2019-08-08, 00:11:06,VALID,917.77,VALID,0.0,VALID,96.541,VALID,-0.011,VALID,20.684,VALID,341.0,VALID,0.0,
2019-08-08, 00:12:06,VALID,917.755,VALID,0.0,VALID,96.459,VALID,-0.009,VALID,20.613,VALID,341.0,VALID,0.0,
2019-08-08, 00:13:06,VALID,917.741,VALID,0.0,VALID,96.725,VALID,-0.004,VALID,20.608,VALID,341.0,VALID,0.0,
2019-08-08, 00:14:06,VALID,917.706,VALID,0.0,VALID,96.899,VALID,-0.015,VALID,20.623,VALID,341.0,VALID,0.0,
2019-08-08, 00:15:06,VALID,917.696,VALID,0.0,VALID,96.838,VALID,-0.015,VALID,20.63,VALID,341.0,VALID,0.0,
2019-08-08, 00:16:06,VALID,917.656,VALID,0.0,VALID,96.492,VALID,-0.009,VALID,20.593,VALID,285.0,VALID,0.0,
2019-08-08, 00:17:06,VALID,917.639,VALID,0.0,VALID,96.311,VALID,-0.015,VALID,20.542,VALID,233.0,VALID,0.0,
2019-08-08, 00:18:06,VALID,917.612,VALID,0.0,VALID,96.472,VALID,-0.021,VALID,20.529,VALID,232.0,VALID,0.0,
2019-08-08, 00:19:06,VALID,917.606,VALID,0.0,VALID,96.608,VALID,0.021,VALID,20.518,VALID,232.0,VALID,0.0,
2019-08-08, 00:20:06,VALID,917.603,VALID,0.0,VALID,96.662,VALID,0.021,VALID,20.5,VALID,232.0,VALID,0.0,
2019-08-08, 00:21:06,VALID,917.605,VALID,0.0,VALID,96.877,VALID,0.021,VALID,20.519,VALID,232.0,VALID,0.0,
2019-08-08, 00:22:06,VALID,917.595,VALID,0.0,VALID,96.908,VALID,0.014,VALID,20.537,VALID,297.0,VALID,0.0,
2019-08-08, 00:23:06,VALID,917.566,VALID,0.0,VALID,96.844,VALID,0.016,VALID,20.53,VALID,340.0,VALID,0.0,
2019-08-08, 00:24:06,VALID,917.571,VALID,0.0,VALID,96.894,VALID,0.014,VALID,20.534,VALID,18.0,VALID,0.0,
2019-08-08, 00:25:06,VALID,917.559,VALID,0.0,VALID,96.785,VALID,0.011,VALID,20.509,VALID,34.0,VALID,0.0,
2019-08-08, 00:26:06,VALID,917.542,VALID,0.0,VALID,96.925,VALID,0.009,VALID,20.532,VALID,15.0,VALID,0.0,
2019-08-08, 00:27:06,VALID,917.532,VALID,0.0,VALID,96.845,VALID,0.009,VALID,20.487,VALID,2.0,VALID,0.0,
2019-08-08, 00:28:06,VALID,917.498,VALID,0.0,VALID,96.474,VALID,0.003,VALID,20.398,VALID,3.0,VALID,0.0,
2019-08-08, 00:29:06,VALID,917.492,VALID,0.0,VALID,96.583,VALID,0.02,VALID,20.394,VALID,358.0,VALID,0.0,
2019-08-08, 00:30:06,VALID,917.479,VALID,0.0,VALID,96.789,VALID,0.01,VALID,20.39,VALID,345.0,VALID,0.0,
2019-08-08, 00:31:06,VALID,917.489,VALID,0.0,VALID,96.779,VALID,0.006,VALID,20.4,VALID,324.0,VALID,0.0,
2019-08-08, 00:32:06,VALID,917.469,VALID,0.0,VALID,96.907,VALID,-0.006,VALID,20.428,VALID,324.0,VALID,0.0,
2019-08-08, 00:33:06,VALID,917.451,VALID,0.0,VALID,96.818,VALID,0.014,VALID,20.411,VALID,340.0,VALID,0.0,
2019-08-08, 00:34:06,VALID,917.426,VALID,0.0,VALID,96.742,VALID,-0.016,VALID,20.411,VALID,7.0,VALID,0.0,
2019-08-08, 00:35:06,VALID,917.403,VALID,0.0,VALID,96.895,VALID,-0.013,VALID,20.424,VALID,11.0,VALID,0.0,
2019-08-08, 00:36:06,VALID,917.373,VALID,0.0,VALID,96.974,VALID,-0.007,VALID,20.416,VALID,29.0,VALID,0.0,
2019-08-08, 00:37:06,VALID,917.371,VALID,0.0,VALID,97.033,VALID,-0.008,VALID,20.43,VALID,10.0,VALID,0.0,
2019-08-08, 00:38:06,VALID,917.369,VALID,0.0,VALID,96.953,VALID,-0.003,VALID,20.441,VALID,13.0,VALID,0.0,
2019-08-08, 00:39:06,VALID,917.346,VALID,0.0,VALID,96.777,VALID,-0.008,VALID,20.451,VALID,10.0,VALID,0.0,
2019-08-08, 00:40:06,VALID,917.316,VALID,0.0,VALID,96.682,VALID,0.007,VALID,20.488,VALID,358.0,VALID,0.0,
2019-08-08, 00:41:06,VALID,917.321,VALID,0.0,VALID,96.211,VALID,0.008,VALID,20.464,VALID,348.0,VALID,0.0,
2019-08-08, 00:42:06,VALID,917.287,VALID,0.0,VALID,96.128,VALID,-0.009,VALID,20.471,VALID,348.0,VALID,0.0,
2019-08-08, 00:43:06,VALID,917.263,VALID,0.0,VALID,96.029,VALID,-0.016,VALID,20.477,VALID,345.0,VALID,0.0,
2019-08-08, 00:44:06,VALID,917.263,VALID,0.0,VALID,95.783,VALID,0.0,VALID,20.492,VALID,341.0,VALID,0.0,
2019-08-08, 00:45:06,VALID,917.258,VALID,0.0,VALID,95.664,VALID,-0.001,VALID,20.493,VALID,339.0,VALID,0.0,
2019-08-08, 00:46:06,VALID,917.256,VALID,0.0,VALID,95.353,VALID,-0.009,VALID,20.478,VALID,329.0,VALID,0.0,
2019-08-08, 00:47:06,VALID,917.244,VALID,0.0,VALID,95.315,VALID,0.005,VALID,20.495,VALID,329.0,VALID,0.0,
2019-08-08, 00:48:06,VALID,917.238,VALID,0.0,VALID,95.178,VALID,0.006,VALID,20.5,VALID,328.0,VALID,0.0,
2019-08-08, 00:49:06,VALID,917.219,VALID,0.0,VALID,95.278,VALID,-0.026,VALID,20.511,VALID,311.0,VALID,0.0,
2019-08-08, 00:50:06,VALID,917.204,VALID,0.0,VALID,95.287,VALID,-0.027,VALID,20.514,VALID,296.0,VALID,0.0,
2019-08-08, 00:51:06,VALID,917.214,VALID,0.0,VALID,95.277,VALID,-0.029,VALID,20.534,VALID,296.0,VALID,0.0,
2019-08-08, 00:52:06,VALID,917.182,VALID,0.0,VALID,95.303,VALID,-0.03,VALID,20.55,VALID,327.0,VALID,0.0,
2019-08-08, 00:53:06,VALID,917.188,VALID,0.0,VALID,95.226,VALID,-0.025,VALID,20.546,VALID,3.0,VALID,0.0,
2019-08-08, 00:54:06,VALID,917.163,VALID,0.0,VALID,95.355,VALID,-0.037,VALID,20.566,VALID,3.0,VALID,0.0,
2019-08-08, 00:55:06,VALID,917.18,VALID,0.0,VALID,95.118,VALID,-0.022,VALID,20.549,VALID,3.0,VALID,0.0,
2019-08-08, 00:56:06,VALID,917.143,VALID,0.0,VALID,95.091,VALID,-0.031,VALID,20.566,VALID,354.0,VALID,0.0,
2019-08-08, 00:57:06,VALID,917.124,VALID,0.0,VALID,95.267,VALID,-0.026,VALID,20.58,VALID,268.0,VALID,0.0,
2019-08-08, 00:58:06,VALID,917.118,VALID,0.0,VALID,95.718,VALID,-0.04,VALID,20.539,VALID,230.0,VALID,0.0,
2019-08-08, 00:59:06,VALID,917.072,VALID,0.0,VALID,96.142,VALID,-0.041,VALID,20.504,VALID,228.0,VALID,0.0,
2019-08-08, 01:00:06,VALID,917.07,VALID,0.0,VALID,96.238,VALID,-0.032,VALID,20.473,VALID,210.0,VALID,0.0,
2019-08-08, 01:01:06,VALID,917.064,VALID,0.0,VALID,96.437,VALID,-0.003,VALID,20.452,VALID,187.0,VALID,0.0,
2019-08-08, 01:02:06,VALID,917.059,VALID,0.0,VALID,96.486,VALID,-0.019,VALID,20.44,VALID,187.0,VALID,0.0,
2019-08-08, 01:03:06,VALID,917.04,VALID,0.0,VALID,96.488,VALID,-0.012,VALID,20.433,VALID,187.0,VALID,0.0,
2019-08-08, 01:04:06,VALID,917.073,VALID,0.0,VALID,96.539,VALID,-0.007,VALID,20.445,VALID,187.0,VALID,0.0,
2019-08-08, 01:05:06,VALID,917.057,VALID,0.0,VALID,96.471,VALID,-0.034,VALID,20.474,VALID,293.0,VALID,0.0,
2019-08-08, 01:06:06,VALID,917.077,VALID,0.0,VALID,96.396,VALID,-0.024,VALID,20.508,VALID,298.0,VALID,0.0,
2019-08-08, 01:07:06,VALID,917.075,VALID,0.0,VALID,96.2,VALID,-0.023,VALID,20.516,VALID,298.0,VALID,0.0,
2019-08-08, 01:08:06,VALID,917.052,VALID,0.0,VALID,96.057,VALID,-0.033,VALID,20.474,VALID,305.0,VALID,0.0,
2019-08-08, 01:09:06,VALID,917.036,VALID,0.0,VALID,96.338,VALID,-0.025,VALID,20.464,VALID,18.0,VALID,0.0,
2019-08-08, 01:10:06,VALID,917.034,VALID,0.0,VALID,96.527,VALID,-0.025,VALID,20.469,VALID,21.0,VALID,0.0,
2019-08-08, 01:11:06,VALID,917.019,VALID,0.0,VALID,96.576,VALID,-0.023,VALID,20.466,VALID,21.0,VALID,0.0,
2019-08-08, 01:12:06,VALID,917.064,VALID,0.0,VALID,96.665,VALID,-0.009,VALID,20.458,VALID,21.0,VALID,0.0,
2019-08-08, 01:13:06,VALID,917.088,VALID,0.0,VALID,96.677,VALID,-0.004,VALID,20.455,VALID,21.0,VALID,0.0,
2019-08-08, 01:14:06,VALID,917.075,VALID,0.0,VALID,96.859,VALID,-0.025,VALID,20.483,VALID,21.0,VALID,0.0,
2019-08-08, 01:15:06,VALID,917.087,VALID,0.0,VALID,96.919,VALID,-0.019,VALID,20.513,VALID,21.0,VALID,0.0,
2019-08-08, 01:16:06,VALID,917.057,VALID,0.0,VALID,96.868,VALID,-0.021,VALID,20.537,VALID,21.0,VALID,0.0,
2019-08-08, 01:17:06,VALID,917.062,VALID,0.0,VALID,96.65,VALID,-0.033,VALID,20.56,VALID,21.0,VALID,0.0,
2019-08-08, 01:18:06,VALID,917.058,VALID,0.0,VALID,96.384,VALID,-0.02,VALID,20.574,VALID,21.0,VALID,0.0,
2019-08-08, 01:19:06,VALID,917.055,VALID,0.0,VALID,96.339,VALID,-0.012,VALID,20.593,VALID,21.0,VALID,0.0,
2019-08-08, 01:20:06,VALID,917.045,VALID,0.0,VALID,96.354,VALID,-0.006,VALID,20.578,VALID,21.0,VALID,0.0,
2019-08-08, 01:21:06,VALID,917.042,VALID,0.0,VALID,96.484,VALID,-0.021,VALID,20.564,VALID,22.0,VALID,0.0,
2019-08-08, 01:22:06,VALID,917.025,VALID,0.0,VALID,96.58,VALID,-0.016,VALID,20.558,VALID,22.0,VALID,0.0,
2019-08-08, 01:23:06,VALID,917.027,VALID,0.0,VALID,96.54,VALID,-0.022,VALID,20.526,VALID,22.0,VALID,0.0,
2019-08-08, 01:24:06,VALID,917.025,VALID,0.0,VALID,96.604,VALID,-0.022,VALID,20.495,VALID,22.0,VALID,0.0,
2019-08-08, 01:25:06,VALID,917.009,VALID,0.0,VALID,96.708,VALID,-0.017,VALID,20.497,VALID,16.0,VALID,0.0,
2019-08-08, 01:26:06,VALID,916.987,VALID,0.0,VALID,96.537,VALID,-0.035,VALID,20.488,VALID,13.0,VALID,0.0,
2019-08-08, 01:27:06,VALID,916.972,VALID,0.0,VALID,96.474,VALID,-0.029,VALID,20.486,VALID,13.0,VALID,0.0,
2019-08-08, 01:28:06,VALID,916.962,VALID,0.0,VALID,96.354,VALID,-0.041,VALID,20.467,VALID,13.0,VALID,0.0,
2019-08-08, 01:29:06,VALID,916.931,VALID,0.0,VALID,96.273,VALID,-0.027,VALID,20.462,VALID,13.0,VALID,0.0,
2019-08-08, 01:30:06,VALID,916.92,VALID,0.0,VALID,96.405,VALID,-0.016,VALID,20.46,VALID,13.0,VALID,0.0,
2019-08-08, 01:31:06,VALID,916.931,VALID,0.0,VALID,96.435,VALID,-0.019,VALID,20.454,VALID,7.0,VALID,0.0,
2019-08-08, 01:32:06,VALID,916.913,VALID,0.0,VALID,96.385,VALID,-0.021,VALID,20.46,VALID,354.0,VALID,0.0,
2019-08-08, 01:33:06,VALID,916.951,VALID,0.0,VALID,96.306,VALID,-0.019,VALID,20.454,VALID,327.0,VALID,0.0,
2019-08-08, 01:34:06,VALID,916.961,VALID,0.0,VALID,96.116,VALID,0.008,VALID,20.454,VALID,328.0,VALID,0.0,
2019-08-08, 01:35:06,VALID,916.954,VALID,0.0,VALID,96.075,VALID,-0.003,VALID,20.46,VALID,315.0,VALID,0.0,
2019-08-08, 01:36:06,VALID,916.975,VALID,0.0,VALID,96.223,VALID,0.018,VALID,20.49,VALID,356.0,VALID,0.0,
2019-08-08, 01:37:06,VALID,916.952,VALID,0.0,VALID,96.55,VALID,0.002,VALID,20.547,VALID,358.0,VALID,0.0,
2019-08-08, 01:38:06,VALID,916.956,VALID,0.0,VALID,96.392,VALID,0.005,VALID,20.558,VALID,7.0,VALID,0.0,
2019-08-08, 01:39:06,VALID,916.944,VALID,0.0,VALID,96.128,VALID,0.008,VALID,20.55,VALID,6.0,VALID,0.0,
2019-08-08, 01:40:06,VALID,916.958,VALID,0.0,VALID,96.257,VALID,-0.002,VALID,20.532,VALID,6.0,VALID,0.0,
2019-08-08, 01:41:06,VALID,916.976,VALID,0.0,VALID,96.336,VALID,-0.009,VALID,20.502,VALID,2.0,VALID,0.0,
2019-08-08, 01:42:06,VALID,916.987,VALID,0.0,VALID,96.399,VALID,0.006,VALID,20.492,VALID,5.0,VALID,0.0,
2019-08-08, 01:43:06,VALID,916.999,VALID,0.0,VALID,96.456,VALID,0.007,VALID,20.49,VALID,357.0,VALID,0.0,
2019-08-08, 01:44:06,VALID,917.007,VALID,0.0,VALID,96.673,VALID,0.004,VALID,20.511,VALID,348.0,VALID,0.0,
2019-08-08, 01:45:06,VALID,917.006,VALID,0.0,VALID,96.739,VALID,0.012,VALID,20.519,VALID,355.0,VALID,0.0,
2019-08-08, 01:46:06,VALID,917.002,VALID,0.0,VALID,96.698,VALID,0.011,VALID,20.506,VALID,19.0,VALID,0.0,
2019-08-08, 01:47:06,VALID,917.01,VALID,0.0,VALID,96.747,VALID,0.024,VALID,20.512,VALID,26.0,VALID,0.0,
2019-08-08, 01:48:06,VALID,916.995,VALID,0.0,VALID,96.769,VALID,0.006,VALID,20.512,VALID,26.0,VALID,0.0,
2019-08-08, 01:49:06,VALID,916.982,VALID,0.0,VALID,96.627,VALID,-0.008,VALID,20.484,VALID,33.0,VALID,0.0,
2019-08-08, 01:50:06,VALID,916.963,VALID,0.0,VALID,96.656,VALID,0.007,VALID,20.472,VALID,35.0,VALID,0.0,
2019-08-08, 01:51:06,VALID,916.961,VALID,0.0,VALID,96.754,VALID,0.002,VALID,20.506,VALID,35.0,VALID,0.0,
2019-08-08, 01:52:06,VALID,916.952,VALID,0.0,VALID,96.639,VALID,-0.003,VALID,20.52,VALID,35.0,VALID,0.0,
2019-08-08, 01:53:06,VALID,916.939,VALID,0.0,VALID,96.622,VALID,0.001,VALID,20.545,VALID,35.0,VALID,0.0,
2019-08-08, 01:54:06,VALID,916.931,VALID,0.0,VALID,96.59,VALID,0.002,VALID,20.575,VALID,34.0,VALID,0.0,
2019-08-08, 01:55:06,VALID,916.927,VALID,0.0,VALID,96.532,VALID,0.017,VALID,20.583,VALID,34.0,VALID,0.0,
2019-08-08, 01:56:06,VALID,916.931,VALID,0.0,VALID,96.349,VALID,0.003,VALID,20.571,VALID,24.0,VALID,0.0,
2019-08-08, 01:57:06,VALID,916.901,VALID,0.0,VALID,96.113,VALID,0.006,VALID,20.549,VALID,21.0,VALID,0.0,
2019-08-08, 01:58:06,VALID,916.886,VALID,0.0,VALID,96.162,VALID,-0.0,VALID,20.539,VALID,21.0,VALID,0.0,
2019-08-08, 01:59:06,VALID,916.884,VALID,0.0,VALID,95.906,VALID,-0.004,VALID,20.51,VALID,21.0,VALID,0.0,
2019-08-08, 02:00:06,VALID,916.851,VALID,0.0,VALID,95.85,VALID,-0.004,VALID,20.505,VALID,26.0,VALID,0.0,
2019-08-08, 02:01:06,VALID,916.824,VALID,0.0,VALID,95.907,VALID,-0.0,VALID,20.51,VALID,110.0,VALID,0.0,
2019-08-08, 02:02:06,VALID,916.808,VALID,0.0,VALID,96.002,VALID,-0.001,VALID,20.498,VALID,140.0,VALID,0.0,
2019-08-08, 02:03:06,VALID,916.806,VALID,0.0,VALID,96.23,VALID,-0.005,VALID,20.473,VALID,143.0,VALID,0.0,
2019-08-08, 02:04:06,VALID,916.791,VALID,0.0,VALID,96.472,VALID,-0.021,VALID,20.447,VALID,144.0,VALID,0.0,
2019-08-08, 02:05:06,VALID,916.775,VALID,0.0,VALID,96.443,VALID,-0.039,VALID,20.404,VALID,146.0,VALID,0.0,
2019-08-08, 02:06:06,VALID,916.742,VALID,0.0,VALID,96.534,VALID,-0.017,VALID,20.371,VALID,156.0,VALID,0.0,
2019-08-08, 02:07:06,VALID,916.711,VALID,0.0,VALID,96.33,VALID,-0.003,VALID,20.305,VALID,158.0,VALID,0.0,
2019-08-08, 02:08:06,VALID,916.706,VALID,0.0,VALID,96.442,VALID,0.006,VALID,20.309,VALID,158.0,VALID,0.0,
2019-08-08, 02:09:06,VALID,916.7,VALID,0.0,VALID,96.417,VALID,-0.006,VALID,20.281,VALID,158.0,VALID,0.0,
2019-08-08, 02:10:06,VALID,916.701,VALID,0.0,VALID,96.402,VALID,0.002,VALID,20.279,VALID,158.0,VALID,0.0,
2019-08-08, 02:11:06,VALID,916.686,VALID,0.0,VALID,96.687,VALID,-0.011,VALID,20.294,VALID,163.0,VALID,0.0,
2019-08-08, 02:12:06,VALID,916.687,VALID,0.0,VALID,96.606,VALID,-0.011,VALID,20.283,VALID,187.0,VALID,0.0,
2019-08-08, 02:13:06,VALID,916.703,VALID,0.0,VALID,96.666,VALID,-0.002,VALID,20.298,VALID,182.0,VALID,0.0,
2019-08-08, 02:14:06,VALID,916.718,VALID,0.0,VALID,96.659,VALID,0.004,VALID,20.32,VALID,192.0,VALID,0.0,
2019-08-08, 02:15:06,VALID,916.695,VALID,0.0,VALID,96.523,VALID,0.015,VALID,20.328,VALID,180.0,VALID,0.0,
2019-08-08, 02:16:06,VALID,916.692,VALID,0.0,VALID,96.259,VALID,0.006,VALID,20.343,VALID,180.0,VALID,0.0,
2019-08-08, 02:17:06,VALID,916.685,VALID,0.0,VALID,95.952,VALID,-0.0,VALID,20.354,VALID,180.0,VALID,0.0,
2019-08-08, 02:18:06,VALID,916.696,VALID,0.0,VALID,95.605,VALID,-0.003,VALID,20.349,VALID,184.0,VALID,0.0,
2019-08-08, 02:19:06,VALID,916.689,VALID,0.0,VALID,94.912,VALID,0.051,VALID,20.353,VALID,184.0,VALID,0.0,
2019-08-08, 02:20:06,VALID,916.678,VALID,0.0,VALID,94.94,VALID,0.045,VALID,20.434,VALID,184.0,VALID,0.0,
2019-08-08, 02:21:06,VALID,916.676,VALID,0.0,VALID,94.406,VALID,0.046,VALID,20.443,VALID,184.0,VALID,0.0,
2019-08-08, 02:22:06,VALID,916.661,VALID,0.0,VALID,93.957,VALID,0.041,VALID,20.46,VALID,184.0,VALID,0.0,
2019-08-08, 02:23:06,VALID,916.65,VALID,0.0,VALID,93.762,VALID,0.039,VALID,20.481,VALID,205.0,VALID,0.0,
2019-08-08, 02:24:06,VALID,916.647,VALID,0.0,VALID,93.533,VALID,0.048,VALID,20.492,VALID,229.0,VALID,0.0,
2019-08-08, 02:25:06,VALID,916.632,VALID,0.0,VALID,93.761,VALID,0.031,VALID,20.532,VALID,229.0,VALID,0.0,
2019-08-08, 02:26:06,VALID,916.625,VALID,0.0,VALID,93.617,VALID,0.038,VALID,20.548,VALID,229.0,VALID,0.0,
2019-08-08, 02:27:06,VALID,916.623,VALID,0.0,VALID,93.697,VALID,0.046,VALID,20.569,VALID,229.0,VALID,0.0,
2019-08-08, 02:28:06,VALID,916.64,VALID,0.0,VALID,92.755,VALID,0.05,VALID,20.568,VALID,229.0,VALID,0.0,
2019-08-08, 02:29:06,VALID,916.625,VALID,0.0,VALID,92.603,VALID,0.045,VALID,20.592,VALID,229.0,VALID,0.0,
2019-08-08, 02:30:06,VALID,916.64,VALID,0.0,VALID,93.324,VALID,0.044,VALID,20.655,VALID,232.0,VALID,0.0,
2019-08-08, 02:31:06,VALID,916.625,VALID,0.0,VALID,93.745,VALID,0.045,VALID,20.676,VALID,233.0,VALID,0.0,
2019-08-08, 02:32:06,VALID,916.615,VALID,0.0,VALID,93.911,VALID,0.049,VALID,20.67,VALID,233.0,VALID,0.0,
2019-08-08, 02:33:06,VALID,916.605,VALID,0.0,VALID,93.62,VALID,0.032,VALID,20.651,VALID,233.0,VALID,0.0,
2019-08-08, 02:34:06,VALID,916.59,VALID,0.0,VALID,93.092,VALID,0.046,VALID,20.609,VALID,232.0,VALID,0.0,
2019-08-08, 02:35:06,VALID,916.575,VALID,0.0,VALID,93.016,VALID,0.044,VALID,20.552,VALID,228.0,VALID,0.0,
2019-08-08, 02:36:06,VALID,916.595,VALID,0.0,VALID,93.293,VALID,0.036,VALID,20.517,VALID,227.0,VALID,0.0,
2019-08-08, 02:37:06,VALID,916.585,VALID,0.0,VALID,93.561,VALID,0.03,VALID,20.492,VALID,227.0,VALID,0.0,
2019-08-08, 02:38:06,VALID,916.563,VALID,0.0,VALID,93.528,VALID,0.048,VALID,20.449,VALID,227.0,VALID,0.0,
2019-08-08, 02:39:06,VALID,916.559,VALID,0.0,VALID,93.327,VALID,0.043,VALID,20.406,VALID,219.0,VALID,0.0,
2019-08-08, 02:40:06,VALID,916.514,VALID,0.0,VALID,93.459,VALID,0.044,VALID,20.376,VALID,213.0,VALID,0.0,
2019-08-08, 02:41:06,VALID,916.516,VALID,0.0,VALID,93.637,VALID,0.034,VALID,20.365,VALID,214.0,VALID,0.0,
2019-08-08, 02:42:06,VALID,916.487,VALID,0.0,VALID,93.68,VALID,0.043,VALID,20.339,VALID,214.0,VALID,0.0,
2019-08-08, 02:43:06,VALID,916.486,VALID,0.0,VALID,93.9,VALID,0.034,VALID,20.336,VALID,214.0,VALID,0.0,
2019-08-08, 02:44:06,VALID,916.493,VALID,0.0,VALID,93.895,VALID,0.024,VALID,20.334,VALID,214.0,VALID,0.0,
2019-08-08, 02:45:06,VALID,916.482,VALID,0.0,VALID,93.429,VALID,0.036,VALID,20.324,VALID,214.0,VALID,0.0,
2019-08-08, 02:46:06,VALID,916.506,VALID,0.0,VALID,93.25,VALID,0.036,VALID,20.33,VALID,214.0,VALID,0.0,
2019-08-08, 02:47:06,VALID,916.495,VALID,0.0,VALID,92.977,VALID,0.032,VALID,20.339,VALID,214.0,VALID,0.0,
2019-08-08, 02:48:06,VALID,916.487,VALID,0.0,VALID,93.13,VALID,0.01,VALID,20.352,INVALID,360.0,VALID,0.0,
2019-08-08, 02:49:06,VALID,916.483,VALID,0.0,VALID,93.599,VALID,0.014,VALID,20.298,INVALID,360.0,VALID,0.0,
2019-08-08, 02:50:06,VALID,916.456,VALID,0.0,VALID,93.773,VALID,0.0,VALID,20.243,INVALID,360.0,VALID,0.0,
2019-08-08, 02:51:06,VALID,916.451,VALID,0.0,VALID,93.954,VALID,0.001,VALID,20.227,INVALID,360.0,VALID,0.0,
2019-08-08, 02:52:06,VALID,916.417,VALID,0.0,VALID,94.245,VALID,0.002,VALID,20.256,INVALID,360.0,VALID,0.0,
2019-08-08, 02:53:06,VALID,916.387,VALID,0.0,VALID,94.426,VALID,0.003,VALID,20.26,INVALID,360.0,VALID,0.0,
2019-08-08, 02:54:06,VALID,916.405,VALID,0.0,VALID,94.514,VALID,-0.005,VALID,20.262,INVALID,360.0,VALID,0.0,
2019-08-08, 02:55:06,VALID,916.416,VALID,0.0,VALID,94.547,VALID,0.009,VALID,20.26,INVALID,360.0,VALID,0.0,
2019-08-08, 02:56:06,VALID,916.415,VALID,0.0,VALID,94.437,VALID,0.002,VALID,20.272,INVALID,360.0,VALID,0.0,
2019-08-08, 02:57:06,VALID,916.415,VALID,0.0,VALID,94.646,VALID,0.004,VALID,20.263,INVALID,360.0,VALID,0.0,
2019-08-08, 02:58:06,VALID,916.447,VALID,0.0,VALID,94.978,VALID,-0.002,VALID,20.239,INVALID,360.0,VALID,0.0,
2019-08-08, 02:59:06,VALID,916.424,VALID,0.0,VALID,94.928,VALID,0.008,VALID,20.197,INVALID,360.0,VALID,0.0,
2019-08-08, 03:00:06,VALID,916.446,VALID,0.0,VALID,94.908,VALID,0.015,VALID,20.182,INVALID,360.0,VALID,0.0,
2019-08-08, 03:01:06,VALID,916.444,VALID,0.0,VALID,95.445,VALID,0.004,VALID,20.187,INVALID,360.0,VALID,0.0,
2019-08-08, 03:02:06,VALID,916.464,VALID,0.0,VALID,95.668,VALID,0.009,VALID,20.159,INVALID,360.0,VALID,0.0,
2019-08-08, 03:03:06,VALID,916.455,VALID,0.0,VALID,96.019,VALID,0.016,VALID,20.142,INVALID,360.0,VALID,0.0,
2019-08-08, 03:04:06,VALID,916.448,VALID,0.0,VALID,96.302,VALID,0.015,VALID,20.122,INVALID,360.0,VALID,0.0,
2019-08-08, 03:05:06,VALID,916.457,VALID,0.0,VALID,96.288,VALID,0.014,VALID,20.077,INVALID,360.0,VALID,0.0,
2019-08-08, 03:06:06,VALID,916.488,VALID,0.0,VALID,96.149,VALID,0.013,VALID,20.037,INVALID,360.0,VALID,0.0,
2019-08-08, 03:07:06,VALID,916.479,VALID,0.0,VALID,96.151,VALID,-0.002,VALID,19.999,INVALID,360.0,VALID,0.0,
2019-08-08, 03:08:06,VALID,916.486,VALID,0.0,VALID,95.924,VALID,0.015,VALID,19.913,INVALID,360.0,VALID,0.0,
2019-08-08, 03:09:06,VALID,916.457,VALID,0.0,VALID,95.898,VALID,-0.009,VALID,19.836,INVALID,360.0,VALID,0.0,
2019-08-08, 03:10:06,VALID,916.453,VALID,0.0,VALID,96.466,VALID,-0.002,VALID,19.844,INVALID,360.0,VALID,0.0,
2019-08-08, 03:11:06,VALID,916.454,VALID,0.0,VALID,96.653,VALID,0.002,VALID,19.827,INVALID,360.0,VALID,0.0,
2019-08-08, 03:12:06,VALID,916.457,VALID,0.0,VALID,97.02,VALID,0.015,VALID,19.823,INVALID,360.0,VALID,0.0,
2019-08-08, 03:13:06,VALID,916.461,VALID,0.0,VALID,97.408,VALID,0.014,VALID,19.799,INVALID,360.0,VALID,0.0,
2019-08-08, 03:14:06,VALID,916.451,VALID,0.0,VALID,97.633,VALID,0.003,VALID,19.744,INVALID,360.0,VALID,0.0,
2019-08-08, 03:15:06,VALID,916.435,VALID,0.0,VALID,97.866,VALID,0.01,VALID,19.73,INVALID,360.0,VALID,0.0,
2019-08-08, 03:16:06,VALID,916.433,VALID,0.0,VALID,97.843,VALID,0.023,VALID,19.683,INVALID,360.0,VALID,0.0,
2019-08-08, 03:17:06,VALID,916.446,VALID,0.0,VALID,97.733,VALID,0.022,VALID,19.645,INVALID,360.0,VALID,0.0,
2019-08-08, 03:18:06,VALID,916.428,VALID,0.0,VALID,97.779,VALID,0.008,VALID,19.634,INVALID,360.0,VALID,0.0,
2019-08-08, 03:19:06,VALID,916.436,VALID,0.0,VALID,97.739,VALID,-0.012,VALID,19.603,INVALID,360.0,VALID,0.0,
2019-08-08, 03:20:06,VALID,916.438,VALID,0.0,VALID,97.75,VALID,0.004,VALID,19.599,INVALID,360.0,VALID,0.0,
2019-08-08, 03:21:06,VALID,916.441,VALID,0.0,VALID,97.734,VALID,-0.003,VALID,19.571,INVALID,360.0,VALID,0.0,
2019-08-08, 03:22:06,VALID,916.417,VALID,0.0,VALID,97.83,VALID,-0.015,VALID,19.538,INVALID,360.0,VALID,0.0,
2019-08-08, 03:23:06,VALID,916.391,VALID,0.0,VALID,97.834,VALID,0.009,VALID,19.489,INVALID,360.0,VALID,0.0,
2019-08-08, 03:24:06,VALID,916.376,VALID,0.0,VALID,98.063,VALID,-0.019,VALID,19.506,INVALID,360.0,VALID,0.0,
2019-08-08, 03:25:06,VALID,916.389,VALID,0.0,VALID,98.226,VALID,-0.031,VALID,19.519,INVALID,360.0,VALID,0.0,
2019-08-08, 03:26:06,VALID,916.372,VALID,0.0,VALID,98.293,VALID,-0.02,VALID,19.552,INVALID,360.0,VALID,0.0,
2019-08-08, 03:27:06,VALID,916.366,VALID,0.0,VALID,98.241,VALID,-0.015,VALID,19.531,INVALID,360.0,VALID,0.0,
2019-08-08, 03:28:06,VALID,916.349,VALID,0.0,VALID,98.061,VALID,-0.015,VALID,19.452,INVALID,360.0,VALID,0.0,
2019-08-08, 03:29:06,VALID,916.317,VALID,0.0,VALID,97.888,VALID,-0.017,VALID,19.412,INVALID,360.0,VALID,0.0,
2019-08-08, 03:30:06,VALID,916.308,VALID,0.0,VALID,97.771,VALID,-0.003,VALID,19.392,INVALID,360.0,VALID,0.0,
2019-08-08, 03:31:06,VALID,916.287,VALID,0.0,VALID,97.727,VALID,-0.01,VALID,19.385,INVALID,360.0,VALID,0.0,
2019-08-08, 03:32:06,VALID,916.257,VALID,0.0,VALID,97.701,VALID,-0.004,VALID,19.37,INVALID,360.0,VALID,0.0,
2019-08-08, 03:33:06,VALID,916.253,VALID,0.0,VALID,97.601,VALID,0.005,VALID,19.338,INVALID,360.0,VALID,0.0,
2019-08-08, 03:34:06,VALID,916.227,VALID,0.0,VALID,97.526,VALID,-0.007,VALID,19.312,INVALID,360.0,VALID,0.0,
2019-08-08, 03:35:06,VALID,916.223,VALID,0.0,VALID,97.541,VALID,-0.017,VALID,19.277,INVALID,360.0,VALID,0.0,
2019-08-08, 03:36:06,VALID,916.202,VALID,0.0,VALID,97.684,VALID,-0.021,VALID,19.248,INVALID,360.0,VALID,0.0,
2019-08-08, 03:37:06,VALID,916.205,VALID,0.0,VALID,97.696,VALID,-0.031,VALID,19.235,INVALID,360.0,VALID,0.0,
2019-08-08, 03:38:06,VALID,916.219,VALID,0.0,VALID,98.211,VALID,-0.028,VALID,19.335,INVALID,360.0,VALID,0.0,
2019-08-08, 03:39:06,VALID,916.232,VALID,0.0,VALID,98.384,VALID,-0.01,VALID,19.339,INVALID,360.0,VALID,0.0,
2019-08-08, 03:40:06,VALID,916.236,VALID,0.0,VALID,98.406,VALID,-0.04,VALID,19.316,INVALID,360.0,VALID,0.0,
2019-08-08, 03:41:06,VALID,916.228,VALID,0.0,VALID,98.439,VALID,-0.039,VALID,19.301,INVALID,360.0,VALID,0.0,